This is the latest recevied weather packets stored in our database for station/object W0VI. If no packets are shown the sender has not sent any weather packets the latest 10 day(s).
| Time | Temp. | Humidity | Pressure | Rain* | Wind** | Luminosity | Snow |
|---|---|---|---|---|---|---|---|
| 1777750990 | 17.78° C | 35% | 1013.9 hPa | 0 mm | - | 586 W/m² | - |
| 1777750685 | 17.22° C | 36% | 1014.3 hPa | 0 mm | - | 600 W/m² | - |
| 1777750383 | 17.22° C | 33% | 1014 hPa | 0 mm | - | 400 W/m² | - |
| 1777750078 | 17.22° C | 34% | 1014.4 hPa | 0 mm | - | 593 W/m² | - |
| 1777749776 | 17.22° C | 35% | 1014.1 hPa | 0 mm | - | 593 W/m² | - |
| 1777749472 | 16.67° C | 35% | 1014.4 hPa | 0 mm | - | 613 W/m² | - |
| 1777749170 | 16.67° C | 34% | 1014.5 hPa | 0 mm | - | 640 W/m² | - |
| 1777748867 | 16.67° C | 35% | 1014.6 hPa | 0 mm | - | 642 W/m² | - |
| 1777748564 | 16.67° C | 36% | 1014.7 hPa | 0 mm | - | 652 W/m² | - |
| 1777748259 | 16.67° C | 38% | 1014.9 hPa | 0 mm | - | 575 W/m² | - |
| 1777747956 | 16.67° C | 35% | 1014.9 hPa | 0 mm | - | 778 W/m² | - |
| 1777747652 | 16.67° C | 36% | 1015.1 hPa | 0 mm | - | 512 W/m² | - |
| 1777747348 | 16.11° C | 36% | 1015.2 hPa | 0 mm | - | 442 W/m² | - |
| 1777747045 | 16.67° C | 36% | 1015.3 hPa | 0 mm | - | 402 W/m² | - |
| 1777746740 | 16.11° C | 35% | 1015.4 hPa | 0 mm | - | 721 W/m² | - |
| 1777746436 | 15.56° C | 36% | 1015.2 hPa | 0 mm | - | 843 W/m² | - |
| 1777746131 | 15.56° C | 36% | 1015.5 hPa | 0 mm | - | 727 W/m² | - |
| 1777745828 | 15° C | 37% | 1015.5 hPa | 0 mm | - | 638 W/m² | - |
| 1777745523 | 15° C | 37% | 1015.8 hPa | 0 mm | - | 638 W/m² | - |
| 1777745219 | 15.56° C | 39% | 1015.6 hPa | 0 mm | - | 631 W/m² | - |
| 1777744916 | 15° C | 37% | 1015.8 hPa | 0 mm | - | 629 W/m² | - |
| 1777744615 | 15° C | 36% | 1016 hPa | 0 mm | - | 630 W/m² | - |
| 1777744311 | 15° C | 37% | 1015.8 hPa | 0 mm | - | 621 W/m² | - |
| 1777744008 | 14.44° C | 36% | 1016.2 hPa | 0 mm | - | 644 W/m² | - |
| 1777743704 | 15° C | 36% | 1016.5 hPa | 0 mm | - | 659 W/m² | - |
* Rain latest hour (hover to see other rain measurements)
** Current wind speed in m/s (hover to see current wind gust speed)